Location: Menands
(42.6920°N, 73.7246°W)
Time: 03:21:22
(UTC+00:00)

Meteor 2-17 Rocket - Pass Details

Date: 18 February 2026
Orbit: 935 x 956 km, 82.5° (Epoch: 8 March)

Event Time Altitude Azimuth Distance (km) Brightness Sun altitude
Rises 22:58:21 0° 177° (S) 3,586 7.6 -5.8°
Reaches altitude 10° 23:00:51 10° 174° (S) 2,643 6.8 -6.2°
Maximum altitude 23:06:48 65° 94° (E) 1,026 4.4 -7.3°
Drops below altitude 10° 23:12:47 10° 14° (NNE) 2,653 6.6 -8.4°
Sets 23:15:17 0° 12° (NNE) 3,601 7.3 -8.9°
